Location: Caltech
(34.1382°N, 118.1253°W)
Time: 13:09:29
(UTC-07:00)

Iridium 75 - Visible Passes

Search period start: 21 September 2014 00:00
Search period end: 01 October 2014 00:00
Orbit: 776 x 779 km, 86.4° (Epoch: 21 September)

Date Brightness Start Highest point End Pass type
(mag) Time Alt. Az. Time Alt. Az. Time Alt. Az.
21 Sep 6.4 19:51:09 10° S 19:56:19 70° W 20:01:32 10° N visible
22 Sep 6.1 19:17:45 10° SSE 19:22:51 60° E 19:27:58 10° N visible
22 Sep 9.2 21:01:51 10° W 21:03:56 12° WNW 21:06:01 10° NW visible
23 Sep 9.4 05:53:47 10° NE 05:56:12 13° ENE 05:58:37 10° ESE visible
23 Sep 8.4 20:25:59 10° SW 20:30:08 24° W 20:34:19 10° NNW visible
24 Sep 7.2 19:51:29 10° SSW 19:56:28 46° W 20:01:28 10° NNW visible
25 Sep 6.1 19:17:43 10° S 19:22:54 90° E 19:28:08 10° N visible
26 Sep 9.1 05:52:44 10° NNE 05:56:29 20° E 06:00:14 10° SE visible
26 Sep 9.0 20:27:13 10° WSW 20:30:23 16° WNW 20:33:35 10° NW visible
27 Sep 8.0 19:52:05 10° SW 19:56:38 31° W 20:01:14 10° NNW visible
28 Sep 6.7 19:17:54 10° SSW 19:23:01 61° W 19:28:10 10° N visible
29 Sep 8.3 05:52:12 10° NNE 05:56:43 29° E 06:01:12 10° SE visible
29 Sep 9.5 20:29:46 10° W 20:30:42 10° WNW 20:31:37 10° WNW visible
30 Sep 9.2 05:19:58 10° NE 05:22:57 15° ENE 05:25:56 10° ESE visible
30 Sep 8.8 19:52:59 10° SW 19:56:52 21° W 20:00:45 10° NNW visible
